EW7144 Weather Reports


time (UTC)temp
C
wind
direction
speed
KPH
gust
KPH
rain 1hr
cm
rain 24hr
cm
rain mn
cm
humidity
%
barometer
mb
20260508065906 15 348 14.5 40.2 0.00 5.71 2.59 90 1000.8
20260508065407 15 342 14.5 32.2 0.00 5.71 2.59 90 1000.8
20260508064908 15 345 14.5 32.2 0.00 5.71 2.59 90 1000.7
20260508064407 15 347 16.1 29.0 0.03 5.71 2.59 90 1000.7
20260508063406 15 356 14.5 32.2 0.08 5.77 2.59 90 1000.5
20260508062906 15 346 20.9 41.8 0.08 5.79 2.59 90 1000.6
20260508062406 15 349 11.3 29.0 0.13 5.79 2.59 90 1000.7
20260508061906 15 345 14.5 32.2 0.15 5.79 2.59 90 1000.7
20260508061406 15 355 14.5 32.2 0.18 5.84 2.59 90 1000.8
20260508060907 15 351 11.3 24.1 0.23 5.87 2.59 90 1000.7
20260508060407 15 358 16.1 33.8 0.30 5.89 2.59 90 1000.7
20260508055907 15 356 14.5 27.4 0.33 5.94 2.59 90 1000.7
20260508055406 15 32 16.1 41.8 0.33 5.99 2.59 90 1000.7
20260508054907 15 13 22.5 40.2 0.41 6.05 2.59 90 1000.6
20260508053907 16 353 19.3 38.6 0.41 6.07 2.57 90 1000.7
20260508053406 16 2 19.3 40.2 0.36 6.07 2.51 91 1000.6
20260508052906 16 350 14.5 45.1 0.38 6.10 2.51 91 1000.7
20260508052407 16 14 35.4 62.8 0.36 6.07 2.49 91 1000.8
20260508051907 16 11 25.7 45.1 0.33 6.15 2.46 91 1000.6
20260508051406 16 1 27.4 61.2 0.33 6.12 2.41 91 1000.7
20260508050406 17 13 40.2 62.8 0.20 5.99 2.31 91 1000.6
20260508045906 16 7 32.2 59.5 0.15 5.97 2.26 90 1000.1
20260508045406 16 13 32.2 62.8 0.15 5.97 2.26 90 1000.8
20260508044907 16 15 32.2 61.2 0.13 5.92 2.21 90 1000.8
20260508044406 16 359 41.8 66.0 0.10 5.89 2.18 90 1000.5
20260508043907 17 6 25.7 59.5 0.08 5.87 2.16 90 1000.6
20260508043407 17 12 33.8 64.4 0.10 5.87 2.16 90 1000.7
20260508042406 16 18 32.2 69.2 0.08 5.84 2.11 90 1000.7
20260508041906 16 17 38.6 62.8 0.08 5.87 2.11 90 1000.8
20260508040906 16 15 32.2 53.1 0.08 5.84 2.11 90 1001.1
20260508035906 16 8 30.6 61.2 0.10 5.84 2.11 90 1001.4
20260508035406 16 8 40.2 66.0 0.10 5.84 2.11 90 1001.5
20260508034406 16 28 27.4 56.3 0.15 5.82 2.08 90 1001.5
20260508033906 16 16 33.8 56.3 0.20 5.82 2.08 90 1001.6
20260508032907 16 12 22.5 56.3 0.23 5.79 2.03 90 1002.0
20260508032406 16 13 33.8 57.9 0.23 5.79 2.03 90 1002.2
20260508031907 16 16 30.6 56.3 0.25 5.79 2.03 90 1002.5
20260508031406 16 4 27.4 41.8 0.25 5.77 2.03 90 1002.7
20260508030906 16 32 30.6 62.8 0.25 5.77 2.03 90 1002.9
20260508030406 16 11 33.8 56.3 0.25 5.77 2.03 90 1002.9
20260508025906 16 5 22.5 48.3 0.23 5.74 2.01 90 1002.8
20260508025406 16 16 19.3 48.3 0.25 5.74 2.01 90 1002.8
20260508024906 16 21 22.5 48.3 0.25 5.71 1.98 90 1003.0
20260508024406 16 22 16.1 32.2 0.23 5.69 1.93 90 1002.9
20260508023906 16 16 24.1 41.8 0.18 5.61 1.88 90 1003.2
20260508022906 16 16 16.1 35.4 0.13 5.56 1.83 89 1003.7
20260508021906 17 13 17.7 38.6 0.08 5.51 1.78 90 1004.1
20260508021406 17 18 20.9 48.3 0.05 5.51 1.75 89 1004.1
20260508020906 17 19 22.5 45.1 0.05 5.51 1.75 89 1004.4
20260508020407 17 16 20.9 53.1 0.05 5.51 1.75 89 1004.4
20260508015908 17 15 16.1 56.3 0.05 5.51 1.75 89 1004.5
20260508015407 17 14 20.9 56.3 0.05 5.49 1.75 89 1004.6
20260508014407 17 18 17.7 32.2 0.05 5.46 1.73 89 1005.0
20260508013908 17 23 11.3 57.9 0.03 5.44 1.70 89 1005.2
20260508013407 17 10 16.1 41.8 0.03 5.44 1.70 89 1005.3
20260508011907 17 14 19.3 37.0 0.03 5.44 1.70 89 1005.7
20260508011407 17 25 16.1 38.6 0.03 5.46 1.70 89 1005.8
20260508010908 17 4 16.1 40.2 0.03 5.49 1.70 89 1006.0
20260508010407 17 16 20.9 46.7 0.03 5.49 1.70 89 1006.2
20260508005906 17 13 19.3 41.8 0.03 5.49 1.70 89 1006.2
20260508005408 17 19 19.3 35.4 0.00 5.49 1.68 89 1006.4
20260508004907 17 19 16.1 29.0 0.00 5.49 1.68 89 1006.4
20260508004408 17 16 16.1 35.4 0.00 5.49 1.68 89 1006.6
20260508003907 17 24 20.9 53.1 0.00 5.49 1.68 89 1006.8
20260508003406 17 22 12.9 35.4 0.00 5.49 1.68 89 1007.0
20260508002406 17 15 22.5 41.8 0.00 5.49 1.68 90 1007.3
20260508001906 17 24 17.7 37.0 0.00 5.49 1.68 90 1007.4
20260508000906 17 18 16.1 48.3 0.00 5.49 1.68 90 1007.7
20260508000406 17 31 27.4 49.9 0.00 5.49 1.68 90 1007.9
20260507235906 17 11 12.9 29.0 0.00 5.49 1.68 90 1007.9
20260507234906 17 16 22.5 38.6 0.00 5.51 1.68 90 1008.0
20260507234406 17 18 19.3 38.6 0.03 5.54 1.68 90 1008.1
20260507233907 17 26 22.5 41.8 0.03 5.59 1.68 90 1008.2
20260507233406 17 8 27.4 56.3 0.03 5.59 1.68 90 1008.4
20260507232408 17 4 25.7 41.8 0.03 5.59 1.68 91 1008.4
20260507231406 17 4 25.7 41.8 0.03 5.59 1.68 91 1008.6
20260507230908 17 356 24.1 46.7 0.03 5.59 1.68 91 1008.8
20260507225906 17 13 27.4 40.2 0.03 5.59 1.68 91 1008.8
20260507225406 17 13 19.3 35.4 0.03 5.59 1.68 91 1008.7
20260507224908 17 15 16.1 33.8 0.03 5.59 1.68 91 1008.8
20260507224407 17 9 20.9 48.3 0.03 5.56 1.65 91 1008.9
20260507223408 17 14 25.7 49.9 0.05 5.56 1.65 91 1009.0
20260507222906 17 18 25.7 45.1 0.05 5.56 1.65 91 1009.1
20260507222406 17 0 27.4 48.3 0.05 5.56 1.65 91 1009.2
20260507221906 17 11 27.4 49.9 0.05 5.56 1.65 91 1009.2
20260507221406 17 20 32.2 48.3 0.05 5.56 1.65 91 1009.3
20260507220406 17 1 22.5 49.9 0.05 5.56 1.65 91 1009.4
20260507215906 17 11 25.7 46.7 0.05 5.56 1.65 91 1009.3
20260507214906 17 3 25.7 48.3 0.05 5.56 1.65 91 1009.4
20260507214406 17 12 32.2 57.9 0.03 5.54 1.65 92 1009.5
20260507213906 17 6 25.7 41.8 0.00 5.51 1.63 92 1009.7
20260507213406 17 24 27.4 45.1 0.00 5.51 1.63 92 1009.6
20260507212906 17 9 20.9 46.7 0.00 5.51 1.63 92 1009.6
20260507212406 17 17 25.7 46.7 0.00 5.51 1.63 92 1009.6
20260507211906 17 0 27.4 53.1 0.00 5.51 1.63 92 1009.7
20260507211406 17 8 20.9 40.2 0.00 5.51 1.63 92 1009.8
20260507210906 17 0 27.4 46.7 0.00 5.51 1.63 92 1009.8
20260507210406 17 357 17.7 37.0 0.00 5.51 1.63 92 1009.9
20260507205406 17 1 19.3 32.2 0.00 5.51 1.63 92 1010.0
20260507204906 17 19 17.7 46.7 0.00 5.51 1.63 92 1009.8
20260507204406 17 11 19.3 40.2 0.00 5.51 1.63 92 1009.8
20260507203906 17 8 11.3 40.2 0.00 5.51 1.63 92 1009.9
20260507203406 17 7 22.5 41.8 0.00 5.51 1.63 92 1009.8
20260507202407 17 346 11.3 27.4 0.00 5.51 1.63 92 1009.8
20260507201908 17 9 9.7 25.7 0.00 5.51 1.63 92 1009.7
20260507201406 17 11 12.9 33.8 0.00 5.51 1.63 92 1009.7
20260507200907 17 4 14.5 32.2 0.00 5.51 1.63 92 1009.7
20260507195407 17 358 11.3 33.8 0.03 5.51 1.63 92 1009.7
20260507194906 17 350 19.3 32.2 0.03 5.51 1.63 92 1009.7
20260507194407 17 0 9.7 24.1 0.08 5.51 1.63 92 1009.7
20260507193407 17 351 14.5 32.2 0.15 5.51 1.63 92 1009.6
20260507191406 17 8 9.7 29.0 0.23 5.51 1.63 92 1009.8
20260507190906 17 346 17.7 32.2 0.25 5.51 1.63 92 1009.8
20260507190406 17 339 19.3 29.0 0.25 5.51 1.63 92 1009.8
20260507185906 17 352 9.7 20.9 0.28 5.51 1.60 92 1009.7
20260507185406 17 341 11.3 27.4 0.33 5.51 1.60 92 1009.8
20260507184906 17 347 14.5 24.1 0.38 5.51 1.60 92 1009.9
20260507184406 17 346 12.9 29.0 0.38 5.44 1.55 92 1010.0
20260507183906 17 344 12.9 40.2 0.51 5.41 1.50 92 1010.2
20260507183407 17 351 14.5 32.2 0.66 5.36 1.45 92 1010.1
20260507182407 17 2 11.3 32.2 0.69 5.33 1.45 92 1010.2
20260507181907 17 340 14.5 27.4 0.69 5.31 1.42 92 1010.2
20260507181407 17 356 9.7 32.2 0.69 5.31 1.40 92 1010.3
20260507180908 17 353 16.1 27.4 0.64 5.26 1.37 92 1010.3
20260507180407 17 356 11.3 24.1 0.66 5.26 1.37 92 1010.4
20260507175907 17 12 14.5 33.8 0.66 5.23 1.32 92 1010.5
20260507175408 17 7 11.3 27.4 0.64 5.18 1.27 92 1010.4
20260507174906 17 3 16.1 32.2 0.61 5.13 1.22 92 1010.4
20260507174407 17 6 9.7 40.2 0.58 5.05 1.17 92 1010.5
20260507173907 17 354 8.0 24.1 0.46 4.90 0.99 92 1010.6
20260507173407 17 0 3.2 16.1 0.28 4.70 0.79 92 1010.5
20260507172907 17 0 11.3 25.7 0.28 4.67 0.79 92 1010.6
20260507171406 17 355 16.1 32.2 0.28 4.62 0.71 92 1010.9
20260507170407 17 354 12.9 32.2 0.25 4.60 0.71 92 1011.1
20260507165908 17 334 19.3 33.8 0.23 4.57 0.66 92 1011.1
20260507165406 17 343 9.7 27.4 0.23 4.55 0.64 92 1011.2
20260507164907 17 7 9.7 19.3 0.23 4.52 0.61 92 1011.2
20260507164408 17 341 16.1 32.2 0.18 4.47 0.58 92 1011.1
20260507163907 17 9 19.3 35.4 0.15 4.45 0.53 92 1011.1
20260507163407 17 9 11.3 35.4 0.13 4.42 0.51 92 1011.2
20260507162907 17 12 12.9 29.0 0.10 4.39 0.51 92 1011.1
20260507162406 17 6 16.1 35.4 0.08 4.37 0.48 92 1011.1
20260507161907 17 355 19.3 35.4 0.05 4.37 0.46 92 1011.1
20260507161407 17 340 17.7 32.2 0.05 4.34 0.43 92 1011.2
20260507160907 17 349 16.1 32.2 0.05 4.34 0.43 92 1011.2
20260507160406 17 350 14.5 29.0 0.05 4.34 0.43 92 1011.3
20260507155907 17 6 14.5 35.4 0.03 4.32 0.43 92 1011.4
20260507155406 17 352 14.5 33.8 0.03 4.32 0.43 92 1011.4
20260507154907 17 11 9.7 27.4 0.00 4.32 0.41 92 1011.4
20260507154407 17 351 11.3 25.7 0.00 4.32 0.41 92 1011.5
20260507153906 17 348 11.3 33.8 0.00 4.37 0.41 92 1011.5
20260507152908 17 353 11.3 37.0 0.00 4.39 0.41 92 1011.6
20260507152407 17 5 16.1 25.7 0.00 4.42 0.41 92 1011.7
20260507151907 17 0 19.3 40.2 0.00 4.47 0.41 92 1011.7
20260507150908 17 359 14.5 33.8 0.03 4.55 0.41 92 1011.9
20260507150407 17 23 12.9 32.2 0.03 4.55 0.41 92 1012.1
20260507145407 17 337 14.5 32.2 0.03 4.57 0.41 92 1012.3
20260507144907 17 1 11.3 25.7 0.03 4.57 0.41 92 1012.3
20260507144407 17 345 14.5 32.2 0.03 4.57 0.41 92 1012.5
20260507143907 17 11 12.9 35.4 0.05 4.57 0.41 92 1012.5
20260507143406 17 0 6.4 24.1 0.05 4.57 0.41 92 1012.5
20260507142906 17 353 12.9 32.2 0.10 4.57 0.41 92 1012.6
20260507142406 17 351 14.5 32.2 0.15 4.57 0.41 92 1012.7
20260507141906 17 20 11.3 32.2 0.15 4.57 0.41 92 1012.8
20260507141406 17 2 16.1 29.0 0.18 4.57 0.41 92 1012.8
20260507140906 17 12 14.5 25.7 0.18 4.55 0.38 92 1012.9
20260507140406 17 339 8.0 24.1 0.18 4.55 0.38 92 1012.9
20260507135907 17 0 9.7 29.0 0.20 4.55 0.38 92 1013.0
20260507135408 17 27 9.7 25.7 0.23 4.55 0.38 92 1013.1
20260507134907 17 348 12.9 32.2 0.25 4.55 0.38 92 1013.1
20260507134407 17 6 9.7 40.2 0.28 4.55 0.38 92 1013.1
20260507133906 17 0 11.3 25.7 0.28 4.52 0.36 92 1013.1
20260507132907 17 353 12.9 32.2 0.23 4.47 0.30 92 1013.4
20260507132407 17 0 8.0 32.2 0.23 4.42 0.25 92 1013.3
20260507131908 17 4 11.3 22.5 0.20 4.39 0.23 92 1013.4
20260507131406 17 339 14.5 29.0 0.20 4.37 0.23 92 1013.4
20260507130906 17 2 17.7 32.2 0.20 4.37 0.20 92 1013.5
20260507125906 17 345 14.5 32.2 2.26 4.34 0.18 92 1013.5
20260507125406 17 350 11.3 41.8 2.24 4.32 0.15 92 1013.6
20260507124906 17 9 14.5 41.8 2.21 4.29 0.13 92 1013.6
20260507123906 17 357 14.5 32.2 2.18 4.24 0.08 92 1013.7
20260507123406 17 351 16.1 32.2 2.21 4.24 0.08 92 1013.7
20260507121906 17 358 12.9 27.4 2.16 4.19 0.05 92 1013.7
20260507121406 17 359 14.5 35.4 2.13 4.19 0.03 92 1013.8
20260507120906 17 356 16.1 25.7 2.11 4.17 0.00 92 1013.9
20260507120406 17 7 17.7 41.8 2.11 4.17 0.00 92 1013.8
20260507115906 17 353 17.7 33.8 0.05 2.11 2.08 92 1013.9
20260507113906 17 358 17.7 40.2 0.13 2.08 2.06 92 1014.1
20260507113406 17 356 22.5 35.4 0.15 2.06 2.03 92 1014.1
20260507112906 17 5 22.5 41.8 0.15 2.06 2.03 92 1014.2
20260507111906 17 341 16.1 35.4 0.23 2.06 2.03 92 1014.3
20260507111406 17 330 19.3 35.4 0.23 2.06 2.03 92 1014.4
20260507110406 17 348 19.3 37.0 0.33 2.06 2.03 92 1014.5
20260507105906 17 343 19.3 40.2 0.33 2.06 2.03 92 1014.4
20260507104906 17 338 22.5 41.8 0.38 2.03 2.01 92 1014.4
20260507103906 17 355 11.3 32.2 0.38 1.96 1.93 91 1014.3
20260507103406 17 2 9.7 27.4 0.36 1.91 1.88 91 1014.4
20260507102906 17 6 11.3 25.7 0.38 1.91 1.88 91 1014.5
20260507102406 17 355 14.5 27.4 0.38 1.88 1.85 91 1014.4
20260507101905 17 345 16.1 40.2 0.33 1.83 1.80 91 1014.4
20260507101405 17 2 16.1 38.6 0.33 1.83 1.80 91 1014.5
20260507100906 17 10 16.1 35.4 0.33 1.78 1.75 91 1014.5
20260507095906 17 341 8.0 20.9 0.28 1.73 1.70 91 1014.4
20260507094906 17 350 11.3 33.8 0.25 1.65 1.63 91 1014.5
20260507094406 17 14 16.1 40.2 0.28 1.63 1.60 91 1014.4
20260507092907 17 9 9.7 27.4 0.23 1.52 1.50 91 1014.4
20260507091907 17 357 19.3 38.6 0.23 1.50 1.47 91 1014.5
20260507091406 17 9 12.9 40.2 0.23 1.47 1.45 91 1014.5
20260507090906 17 8 14.5 33.8 0.23 1.45 1.45 91 1014.5
20260507090406 17 11 11.3 29.0 0.23 1.45 1.42 91 1014.5
20260507085906 17 26 12.9 38.6 0.25 1.45 1.42 91 1014.5
20260507085406 17 12 16.1 35.4 0.23 1.42 1.40 91 1014.6
20260507084906 17 9 22.5 49.9 0.23 1.37 1.37 91 1014.8
20260507084406 17 17 14.5 41.8 0.20 1.35 1.32 91 1014.7
20260507083906 17 357 20.9 41.8 0.18 1.30 1.27 91 1014.8
20260507083406 17 349 14.5 46.7 0.20 1.30 1.27 91 1014.7
20260507082406 17 7 19.3 37.0 0.18 1.27 1.27 91 1014.8
20260507081906 17 351 14.5 27.4 0.15 1.27 1.24 91 1014.8
20260507081406 17 4 22.5 41.8 0.18 1.27 1.24 91 1014.9
20260507080905 17 3 20.9 40.2 0.15 1.24 1.22 91 1014.9
20260507080406 17 4 22.5 41.8 0.15 1.22 1.19 91 1014.8
20260507075906 17 17 12.9 33.8 0.13 1.17 1.17 91 1014.8
20260507075406 17 8 17.7 33.8 0.13 1.17 1.17 91 1015.0
20260507074906 17 11 25.7 45.1 0.08 1.14 1.12 91 1015.0
20260507073906 17 338 19.3 40.2 0.05 1.12 1.09 91 1014.9
20260507073406 17 14 16.1 37.0 0.08 1.09 1.09 91 1015.0
20260507072906 17 17 22.5 45.1 0.10 1.09 1.09 91 1015.0
20260507072406 17 14 22.5 38.6 0.13 1.09 1.09 91 1015.1
20260507071906 17 11 22.5 46.7 0.13 1.09 1.09 91 1014.9